• In United Kingdom
  • List of Countries
  • For 7 days
  • Water Temperature
  • Satellite Maps
  • Weather Map
  • Weather Widgets
  • user-avatar
    Login

    Hourly Weather Lubango

    Today, 20 October, Friday

    Time Temperature Precipitation Wind Pressure Humidity
    00:00 +18°C° 0 mm 1 mps 609 mmHg 68%
    01:00 +16°C° 0 mm 1 mps 609 mmHg 70%
    02:00 +16°C° 0 mm 1 mps 609 mmHg 71%
    03:00 +15°C° 0 mm 0 mps 609 mmHg 72%
    04:00 +14°C° 0 mm 0 mps 609 mmHg 72%
    05:00 +15°C° 0 mm 0 mps 609 mmHg 66%
    06:00 +17°C° 0 mm 0 mps 610 mmHg 60%
    07:00 +20°C° 0 mm 1 mps 611 mmHg 56%
    08:00 +23°C° 0 mm 1 mps 612 mmHg 46%
    09:00 +25°C° 0 mm 1 mps 613 mmHg 36%
    10:00 +28°C° 0 mm 2 mps 614 mmHg 26%
    11:00 +29°C° 0 mm 2 mps 614 mmHg 24%
    12:00 +30°C° 0 mm 3 mps 614 mmHg 22%
    13:00 +33°C° 0 mm 3 mps 614 mmHg 20%
    14:00 +30°C° 0 mm 3 mps 613 mmHg 22%
    15:00 +29°C° 0 mm 4 mps 612 mmHg 25%
    16:00 +28°C° 0 mm 4 mps 611 mmHg 27%
    17:00 +26°C° 0 mm 4 mps 611 mmHg 34%
    18:00 +22°C° 0 mm 3 mps 610 mmHg 40%
    19:00 +20°C° 0 mm 3 mps 610 mmHg 47%
    20:00 +19°C° 0 mm 2 mps 610 mmHg 51%
    21:00 +18°C° 0 mm 2 mps 610 mmHg 55%
    22:00 +18°C° 0 mm 1 mps 610 mmHg 59%
    23:00 +18°C° 0 mm 1 mps 610 mmHg 61%

    Tomorrow, 21 October, Saturday

    Time Temperature Precipitation Wind Pressure Humidity
    00:00 +16°C° 0 mm 1 mps 610 mmHg 62%
    01:00 +14°C° 0 mm 0 mps 609 mmHg 63%
    02:00 +15°C° 0 mm 1 mps 609 mmHg 62%
    03:00 +15°C° 0 mm 1 mps 609 mmHg 61%
    04:00 +15°C° 0 mm 1 mps 609 mmHg 60%
    05:00 +18°C° 0 mm 1 mps 610 mmHg 53%
    06:00 +19°C° 0 mm 1 mps 610 mmHg 46%
    07:00 +21°C° 0 mm 1 mps 611 mmHg 39%
    08:00 +24°C° 0 mm 1 mps 612 mmHg 31%
    09:00 +27°C° 0 mm 2 mps 614 mmHg 23%
    10:00 +31°C° 0 mm 3 mps 615 mmHg 15%
    11:00 +33°C° 0 mm 3 mps 615 mmHg 14%
    12:00 +34°C° 0 mm 3 mps 614 mmHg 13%
    13:00 +35°C° 0 mm 3 mps 614 mmHg 11%
    14:00 +34°C° 0 mm 4 mps 613 mmHg 14%
    15:00 +33°C° 0 mm 4 mps 613 mmHg 16%
    16:00 +30°C° 0 mm 4 mps 612 mmHg 18%
    17:00 +27°C° 0 mm 4 mps 611 mmHg 26%
    18:00 +24°C° 0 mm 3 mps 611 mmHg 34%
    19:00 +20°C° 0 mm 3 mps 610 mmHg 42%
    20:00 +19°C° 0 mm 2 mps 610 mmHg 46%
    21:00 +18°C° 0 mm 2 mps 610 mmHg 49%
    22:00 +18°C° 0 mm 1 mps 610 mmHg 53%
    23:00 +16°C° 0 mm 1 mps 610 mmHg 53%

    Day after tomorrow, 22 October, Sunday

    Time Temperature Precipitation Wind Pressure Humidity
    00:00 +16°C° 0 mm 1 mps 609 mmHg 53%
    01:00 +15°C° 0 mm 1 mps 609 mmHg 53%
    02:00 +15°C° 0 mm 1 mps 609 mmHg 53%
    03:00 +15°C° 0 mm 1 mps 609 mmHg 52%
    04:00 +15°C° 0 mm 1 mps 609 mmHg 52%
    05:00 +16°C° 0 mm 1 mps 610 mmHg 45%
    06:00 +19°C° 0 mm 1 mps 611 mmHg 38%
    07:00 +21°C° 0 mm 1 mps 612 mmHg 32%
    08:00 +24°C° 0 mm 2 mps 613 mmHg 25%
    09:00 +27°C° 0 mm 3 mps 614 mmHg 19%
    10:00 +30°C° 0 mm 4 mps 615 mmHg 13%
    11:00 +33°C° 0 mm 4 mps 615 mmHg 12%
    12:00 +34°C° 0 mm 4 mps 615 mmHg 11%
    13:00 +36°C° 0 mm 4 mps 614 mmHg 10%
    14:00 +34°C° 0 mm 4 mps 613 mmHg 12%
    15:00 +33°C° 0 mm 4 mps 612 mmHg 14%
    16:00 +30°C° 0 mm 4 mps 611 mmHg 16%
    17:00 +27°C° 0 mm 3 mps 611 mmHg 23%
    18:00 +25°C° 0 mm 2 mps 611 mmHg 29%
    19:00 +21°C° 0 mm 2 mps 610 mmHg 35%
    20:00 +21°C° 0 mm 1 mps 610 mmHg 39%
    21:00 +20°C° 0 mm 1 mps 610 mmHg 43%
    22:00 +17°C° 0 mm 0 mps 610 mmHg 47%
    23:00 +16°C° 0.1 mm 0 mps 610 mmHg 48%

    23 October, Monday

    Time Temperature Precipitation Wind Pressure Humidity
    00:00 +16°C° 0.1 mm 0 mps 609 mmHg 49%
    01:00 +18°C° 0.1 mm 1 mps 609 mmHg 50%
    02:00 +16°C° 0.5 mm 1 mps 609 mmHg 50%
    03:00 +16°C° 0.5 mm 1 mps 608 mmHg 51%
    04:00 +16°C° 0.5 mm 1 mps 608 mmHg 52%
    05:00 +19°C° 0.3 mm 1 mps 609 mmHg 49%
    06:00 +20°C° 0.3 mm 1 mps 610 mmHg 47%
    07:00 +21°C° 0.3 mm 1 mps 611 mmHg 45%
    08:00 +24°C° 0.1 mm 1 mps 612 mmHg 39%
    09:00 +27°C° 0.1 mm 2 mps 613 mmHg 34%
    10:00 +29°C° 0.1 mm 2 mps 613 mmHg 28%
    11:00 +30°C° 0 mm 2 mps 613 mmHg 26%
    12:00 +31°C° 0 mm 2 mps 612 mmHg 24%
    13:00 +31°C° 0 mm 2 mps 612 mmHg 22%
    14:00 +30°C° 0.4 mm 2 mps 611 mmHg 26%
    15:00 +28°C° 0.4 mm 2 mps 611 mmHg 29%
    16:00 +27°C° 0.4 mm 2 mps 610 mmHg 32%
    17:00 +25°C° 0.3 mm 2 mps 610 mmHg 39%
    18:00 +23°C° 0.3 mm 1 mps 610 mmHg 45%
    19:00 +22°C° 0.3 mm 1 mps 610 mmHg 51%
    20:00 +21°C° 0.5 mm 1 mps 610 mmHg 54%
    21:00 +20°C° 0.5 mm 1 mps 610 mmHg 58%
    22:00 +20°C° 0.5 mm 1 mps 610 mmHg 61%
    23:00 +19°C° 0.5 mm 1 mps 610 mmHg 63%

    24 October, Tuesday

    Time Temperature Precipitation Wind Pressure Humidity
    00:00 +19°C° 0.5 mm 1 mps 609 mmHg 64%
    01:00 +19°C° 0.5 mm 1 mps 609 mmHg 66%
    02:00 +19°C° 0.4 mm 1 mps 609 mmHg 67%
    03:00 +18°C° 0.4 mm 1 mps 608 mmHg 68%
    04:00 +16°C° 0.4 mm 0 mps 608 mmHg 69%
    05:00 +17°C° 0.3 mm 0 mps 609 mmHg 66%
    06:00 +20°C° 0.3 mm 1 mps 610 mmHg 62%
    07:00 +20°C° 0.3 mm 1 mps 610 mmHg 59%
    08:00 +22°C° 0 mm 1 mps 611 mmHg 52%
    09:00 +25°C° 0 mm 1 mps 612 mmHg 45%
    10:00 +27°C° 0 mm 2 mps 613 mmHg 38%
    11:00 +27°C° 0.1 mm 2 mps 612 mmHg 36%
    12:00 +28°C° 0.1 mm 2 mps 612 mmHg 34%
    13:00 +29°C° 0.1 mm 2 mps 611 mmHg 32%
    14:00 +28°C° 0.2 mm 2 mps 611 mmHg 36%
    15:00 +27°C° 0.2 mm 3 mps 610 mmHg 39%
    16:00 +26°C° 0.2 mm 3 mps 610 mmHg 42%
    17:00 +24°C° 2.8 mm 3 mps 610 mmHg 53%
    18:00 +21°C° 2.8 mm 2 mps 610 mmHg 64%
    19:00 +19°C° 2.8 mm 2 mps 610 mmHg 74%
    20:00 +19°C° 1.8 mm 2 mps 610 mmHg 74%
    21:00 +20°C° 1.8 mm 1 mps 610 mmHg 75%
    22:00 +20°C° 1.8 mm 1 mps 611 mmHg 75%
    23:00 +19°C° 0.3 mm 1 mps 610 mmHg 75%

    25 October, Wednesday

    Time Temperature Precipitation Wind Pressure Humidity
    00:00 +19°C° 0.3 mm 1 mps 610 mmHg 76%
    01:00 +19°C° 0.3 mm 1 mps 609 mmHg 77%
    02:00 +19°C° 0.8 mm 1 mps 609 mmHg 79%
    03:00 +18°C° 0.8 mm 1 mps 609 mmHg 80%
    04:00 +18°C° 0.8 mm 1 mps 609 mmHg 82%
    05:00 +19°C° 0.7 mm 1 mps 609 mmHg 77%
    06:00 +19°C° 0.7 mm 1 mps 610 mmHg 73%
    07:00 +20°C° 0.7 mm 1 mps 611 mmHg 69%
    08:00 +22°C° 0.6 mm 1 mps 611 mmHg 61%
    09:00 +24°C° 0.6 mm 1 mps 612 mmHg 53%
    10:00 +26°C° 0.6 mm 2 mps 613 mmHg 45%
    11:00 +26°C° 1.4 mm 2 mps 612 mmHg 44%
    12:00 +26°C° 1.4 mm 2 mps 612 mmHg 44%
    13:00 +26°C° 1.4 mm 2 mps 611 mmHg 43%
    14:00 +25°C° 2.1 mm 2 mps 611 mmHg 48%
    15:00 +24°C° 2.1 mm 2 mps 610 mmHg 52%
    16:00 +24°C° 2.1 mm 2 mps 609 mmHg 57%
    17:00 +21°C° 2.3 mm 2 mps 609 mmHg 62%
    18:00 +20°C° 2.3 mm 2 mps 609 mmHg 67%
    19:00 +19°C° 2.3 mm 2 mps 609 mmHg 72%
    20:00 +19°C° 0.9 mm 2 mps 610 mmHg 73%
    21:00 +19°C° 0.9 mm 2 mps 610 mmHg 73%
    22:00 +20°C° 0.9 mm 1 mps 610 mmHg 74%
    23:00 +19°C° 0.9 mm 1 mps 610 mmHg 74%
    Show more